Startseite
Über Mich
AHP4
Galerie
Sehschlangen
Tourenbuch
Bookmarks
Elektronik
Bewertung
Geschichten
[Tagesmessung] [Jahreswerte] [Information]

Messwerte vom 07.06.2022

Die letzten Messwerte von 23:58:46 Uhr:
KategorieMesswert
Temperatur [°C]17
Luftdruck [mBar]995
Sonneneinstrahlung0
Wind [km/h]0 aus Nordwest
Niederschlag [l/m²]0
rel.Luftfeucht.74.9%
CO2 [ppm]846

Diagramme
Messwerte vom 07.06.2022
Tagesaggregation
KategorieMinimumMaximumSchnittSumme
Temperatur [°C]102918.5021
Luftdruck [mBar]995999996.2708
Sonneneinstrahlung248135.7875
Wind [km/h]17
rF [%]29.796.666.1
Niederschlag [l/m²]0
CO2 [ppm]410869633.3
Einordnung alsVegetationstag
Sommertag

Messungen an benachbarten Tagen: Zur Jahresaggregation 2022
Tabelle aller Messwerte
UhrzeitTemperatur [°C]Luftdruck [mBar]SonneWind [km/h]RichtungRegen [l/m²]rF [%]CO2 [ppm]
00:01:48 15 998 0 0 SO 0 87.4 553
00:04:46 15 998 0 1 S 0 86.7 559
00:07:47 15 998 0 3 S 0 85.9 565
00:10:48 15 998 0 2 S 0 85.8 569
00:13:48 15 998 0 3 SO 0 85.6 574
00:16:46 15 998 0 0 W 0 84.9 580
00:19:45 15 998 0 1 S 0 84.3 591
00:22:46 15 998 0 2 S 0 83.7 589
00:25:46 15 998 0 2 S 0 83.4 594
00:28:47 15 998 0 0 SW 0 83.3 591
00:31:48 15 998 0 0 S 0 82.9 598
00:34:47 15 998 0 1 SO 0 82.7 605
00:37:47 15 998 0 1 S 0 81.8 615
00:40:46 15 998 0 1 SO 0 81.5 620
00:43:47 16 998 0 0 S 0 80.8 619
00:46:46 16 998 0 1 S 0 80.2 624
00:49:49 16 998 0 1 SO 0 80.2 619
00:52:49 15 998 0 0 SO 0 79.9 625
00:55:46 15 998 0 0 S 0 80.1 629
00:58:47 15 998 0 4 SO 0 80.3 633
01:01:46 15 998 0 0 O 0 80.1 641
01:04:48 15 998 0 1 SW 0 80.3 645
01:07:48 15 998 0 0 SO 0 80.8 638
01:10:46 15 998 0 1 S 0 80.8 645
01:13:45 15 998 0 1 S 0 81.2 647
01:16:44 14 998 0 0 S 0 81.5 652
01:19:46 14 998 0 1 SW 0 82.1 657
01:22:48 14 998 0 0 SW 0 82.5 653
01:25:49 14 998 0 0 O 0 83.1 656
01:28:47 14 998 0 0 O 0 83.4 655
01:31:48 13 998 0 0 O 0 84.1 662
01:34:45 13 998 0 0 O 0 84.7 668
01:37:46 13 998 0 0 O 0 85.4 665
01:40:46 13 998 0 0 N 0 86.7 656
01:43:48 13 998 0 0 NW 0 87.8 655
01:46:46 13 998 0 0 N 0 87.9 662
01:49:45 13 998 0 0 W 0 87.9 670
01:52:50 13 998 0 0 SO 0 88.3 674
01:55:47 13 999 0 0 O 0 88.5 674
01:58:47 13 998 0 0 O 0 87.7 668
02:01:47 13 998 0 0 SO 0 87.6 670
02:04:48 12 998 0 0 SO 0 88.3 668
02:07:48 12 998 0 0 SO 0 88.9 671
02:10:50 12 999 0 0 SO 0 89.5 669
02:13:50 12 998 0 0 SO 0 89.6 668
02:16:49 12 998 0 0 SO 0 90.1 670
02:19:48 12 998 0 0 SO 0 90.4 671
02:22:49 12 999 0 0 SO 0 90.5 669
02:25:47 11 998 0 0 SO 0 90.8 673
02:28:49 11 998 0 0 SO 0 90.9 679
02:31:48 11 998 0 0 SO 0 91.2 679
02:34:47 11 998 0 0 SO 0 91.5 685
02:37:47 11 998 0 3 S 0 91.9 676
02:40:49 11 998 0 0 NO 0 92.6 674
02:43:47 11 998 0 0 S 0 92.8 679
02:46:46 11 998 0 1 SO 0 93.1 682
02:49:47 11 998 0 0 SO 0 93.1 681
02:52:48 11 998 0 2 SO 0 93.4 677
02:55:48 11 998 0 0 SO 0 93.3 679
02:58:47 11 998 0 0 SO 0 93.3 684
03:01:49 11 998 0 0 SO 0 93.3 683
03:04:48 11 998 0 0 SO 0 93.5 680
03:07:52 11 998 0 0 SO 0 94 685
03:10:48 11 998 0 0 SO 0 94.4 689
03:13:47 11 998 0 0 SO 0 94.7 688
03:16:48 11 998 0 0 SO 0 95.3 685
03:19:47 11 998 0 0 SO 0 95.6 686
03:22:49 11 998 0 0 SO 0 96.2 682
03:25:48 11 998 0 0 SO 0 95.9 679
03:28:48 11 998 0 0 SO 0 95.6 674
03:31:49 11 998 0 0 N 0 95.7 685
03:34:45 10 997 0 0 N 0 96.2 679
03:37:46 10 998 0 0 N 0 96.6 692
03:40:48 10 998 0 0 N 0 96.6 692
03:43:47 10 998 0 0 N 0 96.6 697
03:46:47 10 998 0 1 N 0 96.6 691
03:49:48 10 998 0 2 N 0 96.6 687
03:52:47 10 998 0 0 SO 0 96.6 687
03:55:49 10 998 0 0 SO 0 96.6 686
03:58:50 10 998 0 0 SO 0 96.6 683
04:01:45 10 998 0 0 N 0 96.6 691
04:04:46 10 998 0 0 NO 0 96.6 683
04:07:49 10 998 0 0 NO 0 96.6 690
04:10:49 10 998 0 0 NO 0 96.6 683
04:13:49 10 998 0 0 NO 0 96.6 680
04:16:48 10 998 0 0 NO 0 96.6 684
04:19:45 10 998 0 0 S 0 96.6 689
04:22:48 10 998 0 1 S 0 96.6 687
04:25:48 10 998 3 0 SO 0 96.6 702
04:28:47 10 998 5 0 NO 0 96.6 697
04:31:46 10 998 7 0 NO 0 96.6 704
04:34:48 10 998 10 0 NO 0 96.6 697
04:37:47 10 998 15 0 NO 0 96.6 697
04:40:48 10 998 21 0 NO 0 96.6 693
04:43:48 10 997 27 0 NO 0 96.6 691
04:46:48 10 998 34 0 NO 0 96.6 691
04:49:48 10 998 43 0 O 0 96.6 692
04:52:48 10 998 51 0 O 0 96.6 686
04:55:49 10 997 60 0 S 0 96.6 685
04:58:45 10 997 68 0 NO 0 96.6 693
05:01:47 10 998 75 0 NO 0 96.6 702
05:04:48 10 998 82 0 SO 0 96.6 707
05:07:48 10 997 90 0 NO 0 96.6 703
05:10:48 10 998 96 0 NO 0 96.6 700
05:13:50 10 998 101 0 NO 0 96.6 694
05:16:47 10 998 106 0 NO 0 96.6 694
05:19:49 10 998 109 0 NO 0 96.6 686
05:22:48 10 998 113 0 NO 0 96.6 685
05:25:47 10 998 118 0 NO 0 96.6 689
05:28:52 10 998 120 0 NO 0 96.6 684
05:31:51 10 998 124 0 NO 0 96.6 688
05:34:49 10 998 130 0 NO 0 96.6 689
05:37:49 10 997 135 0 NO 0 96.6 683
05:40:48 11 998 141 0 NO 0 96.6 682
05:43:49 11 997 146 0 NO 0 96.6 679
05:46:47 11 997 151 1 NO 0 96.6 680
05:49:48 11 997 156 1 NO 0 96.6 685
05:52:51 11 998 158 1 NO 0 96.6 689
05:55:48 11 997 159 0 N 0 96.6 688
05:58:50 11 997 159 0 NO 0 96.6 688
06:01:50 11 997 159 0 NO 0 96.6 691
06:04:49 11 997 161 0 NO 0 96.6 700
06:07:49 11 997 163 0 NO 0 96.6 702
06:10:48 11 997 165 0 NO 0 96.6 700
06:13:50 10 998 167 0 NO 0 96.6 703
06:16:48 10 997 169 0 NO 0 96.6 708
06:19:47 10 996 171 0 NO 0 96.6 708
06:22:50 10 998 173 0 NO 0 96.6 704
06:25:51 10 998 174 0 NO 0 96.6 700
06:28:47 10 997 175 0 NO 0 96.6 706
06:31:50 10 997 176 0 NO 0 96.6 711
06:34:48 10 998 177 0 SO 0 96.6 708
06:37:47 10 998 179 0 SO 0 96.6 711
06:40:49 11 997 180 0 SO 0 96.6 705
06:43:49 11 997 181 0 SO 0 96.6 705
06:46:51 11 998 183 0 SO 0 96.6 703
06:49:47 11 997 184 0 O 0 96.6 706
06:52:48 11 997 185 0 O 0 96.6 706
06:55:46 11 997 185 0 O 0 96.6 696
06:58:49 12 997 186 0 O 0 96.6 676
07:01:46 12 998 186 0 O 0 96.6 650
07:04:47 12 998 186 1 N 0 96.6 627
07:07:51 12 997 186 2 SO 0 96.6 618
07:10:48 13 998 186 0 SO 0 96.6 618
07:13:49 13 998 186 0 O 0 96.6 615
07:16:48 13 997 186 6 S 0 96.6 612
07:19:49 13 997 184 3 SO 0 96.6 621
07:22:48 14 997 184 4 S 0 96.4 626
07:25:48 14 997 150 3 SW 0 95.4 604
07:28:50 15 998 184 0 SO 0 94.9 534
07:31:48 17 998 183 5 SO 0 87.7 471
07:34:50 18 997 183 0 SO 0 79.9 442
07:37:49 20 998 183 0 SO 0 79.3 427
07:40:47 18 998 183 3 S 0 73.5 430
07:43:48 19 996 183 0 SO 0 72.1 433
07:46:49 22 996 183 0 SW 0 63.1 457
07:49:48 22 998 183 0 0 62.8 466
07:52:49 22 997 183 4 SO 0 57.9 469
07:55:45 21 997 183 0 S 0 58.7 459
07:58:47 21 998 183 3 SW 0 59.7 457
08:01:49 21 997 183 9 S 0 58.5 451
08:04:46 20 997 183 1 O 0 57.7 451
08:07:48 19 996 183 2 N 0 58.8 449
08:10:31 19 997 183 3 NW 0 50.7 449
08:13:51 18 997 183 4 SO 0 66.8 436
08:16:45 18 997 184 1 N 0 66.9 439
08:19:49 17 997 184 4 SW 0 67.5 448
08:22:49 17 997 184 6 S 0 68.5 448
08:25:49 17 997 184 3 NW 0 69.2 448
08:28:47 17 997 184 5 S 0 69.9 449
08:31:47 17 998 184 4 S 0 69.6 454
08:34:51 17 997 184 1 S 0 71.4 451
08:37:49 17 997 184 5 SO 0 71.7 448
08:40:49 17 998 185 7 W 0 71.6 453
08:43:47 17 997 185 7 N 0 71.1 456
08:46:49 17 997 185 3 W 0 69.8 454
08:49:48 17 998 185 2 SO 0 69.7 472
08:52:49 17 998 185 2 0 69.5 492
08:55:49 17 997 185 6 SW 0 68.8 527
08:58:49 17 997 185 3 NW 0 69.4 554
09:01:49 17 997 187 11 SO 0 69.6 582
09:04:47 17 996 188 4 S 0 68.1 595
09:07:47 17 997 188 5 SW 0 68.3 595
09:10:48 17 997 190 4 SO 0 68.5 597
09:13:48 17 996 190 11 NO 0 67.6 598
09:16:50 17 997 191 4 SO 0 66.1 600
09:19:48 17 997 193 5 SO 0 65.8 603
09:22:49 17 998 194 17 S 0 64.4 609
09:25:46 18 997 194 2 N 0 64.2 619
09:28:47 18 998 195 8 S 0 65.2 621
09:31:46 18 997 195 3 S 0 64.5 627
09:34:49 18 996 195 8 SW 0 63.1 635
09:37:48 18 997 195 4 SW 0 60.4 647
09:40:50 18 997 195 2 NW 0 60.3 648
09:43:51 18 996 195 6 SW 0 58.9 659
09:46:49 18 997 195 3 SW 0 58.6 653
09:49:48 18 996 195 3 S 0 58.1 659
09:52:48 18 997 196 7 SO 0 56.4 656
09:55:47 18 997 195 2 W 0 55.9 662
09:58:50 18 997 196 8 SW 0 57.5 665
10:01:53 18 997 195 2 S 0 56.9 683
10:04:49 18 997 196 6 SW 0 56.7 685
10:07:50 18 997 195 8 SO 0 56 683
10:10:51 18 996 196 6 S 0 56 681
10:13:49 18 996 196 3 SW 0 57.6 685
10:16:52 18 996 196 15 SO 0 57.8 692
10:19:49 18 996 196 1 NO 0 57.3 695
10:22:48 18 996 197 6 S 0 56.5 702
10:25:48 19 998 197 4 S 0 57.9 694
10:28:48 19 996 198 5 W 0 57.9 697
10:31:49 19 996 198 4 SW 0 56.4 697
10:34:49 19 996 203 6 NW 0 56.3 701
10:37:48 19 997 204 6 W 0 56.4 702
10:40:48 19 996 203 3 S 0 55.9 709
10:43:47 19 997 210 4 W 0 57 708
10:46:48 19 996 205 3 SW 0 56.2 709
10:49:48 19 996 203 3 NO 0 54.7 714
10:52:48 19 996 200 8 S 0 54.5 722
10:55:44 19 997 199 4 O 0 55.4 721
10:58:48 19 997 200 6 SW 0 54.3 723
11:01:48 20 997 204 6 W 0 54.9 718
11:04:48 20 996 203 12 S 0 55.5 727
11:07:47 20 997 199 4 W 0 54.8 732
11:10:49 20 996 202 5 W 0 54.3 733
11:13:46 20 996 199 9 S 0 54.2 736
11:16:47 20 996 199 2 SO 0 53 746
11:19:49 20 997 200 8 W 0 52.3 733
11:22:49 20 996 200 1 NO 0 53.4 727
11:25:46 20 997 199 2 W 0 54.9 729
11:28:48 20 997 201 3 SW 0 54.2 740
11:31:47 21 996 203 5 S 0 52.9 751
11:34:47 21 996 201 3 W 0 51 756
11:37:49 21 996 202 7 SW 0 50.2 753
11:40:49 21 996 201 3 S 0 49.5 746
11:43:48 21 996 201 5 W 0 48.4 743
11:46:45 21 997 203 7 S 0 47.5 749
11:49:48 21 996 207 0 SO 0 50.9 756
11:52:48 22 996 200 6 SW 0 51.4 756
11:55:48 22 995 212 2 S 0 47.4 761
11:58:51 22 996 214 2 NO 0 48.6 759
12:01:48 23 996 195 4 SW 0 48.7 759
12:04:48 23 996 205 2 NW 0 48.7 752
12:07:48 23 996 170 3 W 0 46.7 744
12:10:47 23 996 175 11 0 45.1 741
12:13:47 24 996 183 4 S 0 43.4 720
12:16:49 24 995 202 3 SW 0 41.7 677
12:19:49 24 996 205 3 S 0 42.7 646
12:22:50 24 995 205 2 W 0 43.7 664
12:25:50 24 996 197 3 SO 0 43.6 685
12:28:48 24 996 199 3 NO 0 43.5 673
12:31:48 23 995 202 4 SW 0 43.8 600
12:34:47 24 996 212 5 SO 0 45.5 570
12:37:48 24 995 217 1 O 0 44.3 588
12:40:51 24 996 216 5 SO 0 42.1 581
12:43:51 25 995 216 0 O 0 46.2 559
12:46:49 25 996 217 2 SO 0 43.9 539
12:49:47 24 996 210 2 S 0 43.7 538
12:52:47 24 995 214 0 S 0 44.8 511
12:55:48 23 996 214 1 S 0 46.1 462
12:58:51 23 995 213 0 NW 0 48.9 462
13:01:49 23 996 218 14 W 0 49.2 489
13:04:48 24 996 222 6 S 0 46.4 521
13:07:51 24 995 220 2 NW 0 45.8 527
13:10:49 24 995 221 1 SW 0 46.4 527
13:13:49 25 996 223 2 S 0 44.2 530
13:16:48 25 995 221 1 S 0 43.1 539
13:19:48 25 995 222 3 SW 0 42.1 537
13:22:48 25 995 221 2 S 0 41.1 544
13:25:50 26 996 223 12 W 0 43.6 550
13:28:47 26 996 225 3 S 0 43.2 556
13:31:49 27 995 227 4 S 0 38.1 567
13:34:46 27 995 229 4 SW 0 37.7 571
13:37:51 27 995 227 7 SO 0 36.7 573
13:40:48 27 996 229 4 S 0 36.9 580
13:43:47 26 996 228 2 S 0 41.3 585
13:46:51 27 996 233 11 SO 0 36.4 598
13:49:47 27 995 234 2 O 0 36.6 612
13:52:49 27 996 236 10 SW 0 37.2 611
13:55:47 27 995 235 4 SW 0 37.3 612
13:58:48 27 995 235 3 NW 0 39.4 618
14:01:48 27 995 235 2 S 0 36.9 623
14:04:48 26 996 237 3 SO 0 36.2 632
14:07:48 26 996 235 3 S 0 36.8 635
14:10:50 26 995 237 1 SO 0 37.7 636
14:13:48 26 995 237 5 NW 0 38.5 646
14:16:50 26 995 238 10 W 0 38.2 656
14:19:46 27 995 236 1 N 0 37.7 659
14:22:50 27 995 213 2 NW 0 37.7 659
14:25:48 26 995 240 2 O 0 38.5 662
14:28:49 26 995 241 2 SW 0 39.5 670
14:31:48 27 995 241 3 NO 0 35.9 671
14:34:47 27 995 245 6 0 34.3 673
14:37:49 27 995 245 5 SO 0 33.3 679
14:40:47 27 995 245 10 N 0 32.9 679
14:43:49 27 995 245 5 SW 0 32.1 659
14:46:31 26 995 245 2 SW 0 40 615
14:49:48 28 995 245 2 NO 0 34.8 561
14:52:48 28 995 245 5 NW 0 34.4 527
14:55:45 28 995 245 1 SO 0 33.3 507
14:58:50 28 995 245 3 W 0 31.6 481
15:01:48 28 995 245 5 SW 0 30.9 465
15:04:47 27 995 245 1 SO 0 38.3 451
15:07:46 28 995 245 5 S 0 38.4 451
15:10:32 27 995 244 2 SW 0 40 441
15:13:48 29 995 245 8 SW 0 33.8 427
15:16:48 28 995 230 4 SO 0 34.2 415
15:19:49 27 995 226 2 NW 0 34.8 410
15:22:50 26 995 245 4 S 0 35.3 410
15:25:50 26 995 245 11 NW 0 39 413
15:28:49 26 995 246 4 N 0 35.5 419
15:31:48 27 995 229 4 SW 0 34.5 421
15:34:49 27 995 246 2 N 0 35.1 424
15:37:47 27 995 231 3 SW 0 35.7 419
15:40:48 28 995 246 5 S 0 34.1 427
15:43:49 28 995 238 2 W 0 32.3 422
15:46:48 27 995 246 3 SW 0 35.5 410
15:49:49 28 995 246 3 NO 0 33.9 421
15:52:49 28 995 229 1 W 0 36.4 425
15:55:48 27 995 200 2 W 0 36.4 425
15:58:46 26 995 197 3 W 0 35.4 420
16:01:48 25 995 217 3 W 0 38.2 418
16:04:47 25 995 230 1 S 0 38 424
16:07:47 25 995 246 5 SW 0 37.4 424
16:10:48 26 995 240 4 SO 0 37.2 421
16:13:48 26 995 246 3 S 0 36.2 424
16:16:46 27 995 247 1 W 0 36.6 424
16:19:48 28 995 247 2 S 0 32.7 424
16:22:48 29 995 247 4 SO 0 32 424
16:25:47 29 995 235 5 W 0 30.5 425
16:28:48 28 995 244 4 SO 0 29.7 419
16:31:47 27 995 247 1 S 0 32.9 419
16:34:47 27 995 246 6 NO 0 33.7 416
16:37:50 27 995 232 2 SW 0 32.6 439
16:40:45 26 995 216 5 0 32.5 439
16:43:49 25 995 218 1 NW 0 35 439
16:46:47 24 995 221 6 SW 0 37.2 442
16:49:48 24 995 233 1 SW 0 38.6 436
16:52:50 24 995 247 5 SW 0 40.6 436
16:55:46 26 995 247 1 N 0 41.8 436
16:58:47 27 995 236 2 SO 0 41.6 447
17:01:49 27 995 237 0 NW 0 39.8 451
17:04:50 26 995 235 0 SO 0 39.5 462
17:07:48 26 995 243 0 NW 0 40.9 468
17:10:48 26 995 242 3 NW 0 42.9 477
17:13:48 26 995 244 0 S 0 42.3 480
17:16:47 26 995 245 1 S 0 43 483
17:19:49 26 995 245 0 W 0 42.5 492
17:22:47 26 995 248 3 N 0 41.7 503
17:25:49 26 995 247 12 N 0 41.3 504
17:28:49 26 995 247 7 NW 0 43.4 512
17:31:48 27 995 247 4 NO 0 43.5 515
17:34:46 26 995 247 3 W 0 43.6 514
17:37:47 26 995 247 2 W 0 43.8 526
17:40:48 26 995 245 6 W 0 44.5 533
17:43:47 26 995 247 5 NW 0 45.1 542
17:46:49 26 995 247 2 S 0 45 550
17:49:49 25 995 246 1 NW 0 44.3 553
17:52:49 25 995 247 9 N 0 46.6 562
17:55:50 25 995 245 0 SW 0 47.1 563
17:58:49 25 995 246 4 N 0 47.8 566
18:01:49 24 995 238 2 NO 0 46.1 568
18:04:31 24 995 238 0 W 0 40 565
18:07:50 23 995 231 4 NW 0 50.8 562
18:10:47 22 995 225 6 NO 0 51.6 565
18:13:49 21 995 223 2 NW 0 55 568
18:16:46 21 995 227 1 W 0 55.6 577
18:19:49 21 995 239 2 NW 0 56.7 574
18:22:30 21 995 246 5 W 0 43.8 578
18:25:50 24 995 247 5 NW 0 54.1 583
18:28:50 24 995 216 3 NW 0 51.7 605
18:31:50 25 995 215 1 NW 0 47.8 618
18:34:49 25 995 213 3 NW 0 47.2 609
18:37:50 24 995 209 4 NO 0 45.8 586
18:40:50 24 995 244 3 NW 0 47.3 550
18:43:51 24 995 245 3 W 0 50.8 524
18:46:48 24 995 244 3 S 0 50.7 504
18:49:46 24 995 237 1 S 0 50.5 509
18:52:48 23 995 238 2 NW 0 50.7 522
18:55:31 23 995 228 0 N 0 40 538
18:58:49 22 995 220 3 NW 0 55.2 553
19:01:48 21 995 219 3 NW 0 56.8 565
19:04:48 21 995 221 1 NW 0 57.4 571
19:07:48 21 995 222 0 N 0 60.3 577
19:10:46 20 995 223 0 O 0 60.3 571
19:13:49 20 995 221 3 NW 0 59.9 576
19:16:50 20 995 219 0 N 0 60.8 574
19:19:50 20 995 219 2 NW 0 61.3 577
19:22:49 20 995 217 0 NW 0 61.6 576
19:25:48 20 995 221 0 NW 0 61.1 586
19:28:49 20 995 222 1 NW 0 60.8 597
19:31:47 20 995 221 0 W 0 61.5 604
19:34:46 20 995 221 0 O 0 61 609
19:37:48 21 995 216 0 S 0 60.9 609
19:40:49 21 995 219 2 SW 0 60.8 622
19:43:51 21 995 220 0 S 0 60.7 630
19:46:49 21 995 209 0 SO 0 60.3 642
19:49:48 21 995 195 0 S 0 59 650
19:52:47 21 995 191 1 SO 0 58.2 658
19:55:47 21 995 188 0 SO 0 57.9 664
19:58:52 21 995 184 0 SO 0 58.6 672
20:01:48 21 995 141 0 W 0 59.4 682
20:04:52 21 995 122 3 O 0 59.6 692
20:07:48 21 995 99 1 S 0 59.5 700
20:10:50 20 996 79 0 S 0 59.9 697
20:13:49 20 995 70 0 SW 0 60.2 697
20:16:46 20 995 89 0 S 0 60.5 697
20:19:48 20 995 164 0 W 0 61.6 676
20:22:51 20 995 154 0 W 0 62.4 658
20:25:49 19 995 172 0 SO 0 63.8 638
20:28:49 19 995 169 0 SO 0 65.3 639
20:31:50 19 995 162 0 S 0 66.8 645
20:34:47 19 995 161 0 S 0 67.4 658
20:37:48 19 995 120 0 S 0 67.9 659
20:40:52 19 995 120 0 SO 0 68.7 661
20:43:50 19 995 105 0 SO 0 69.1 668
20:46:47 19 995 100 0 S 0 69.2 674
20:49:48 19 995 112 0 S 0 69.5 690
20:52:49 19 995 98 0 S 0 68.9 688
20:55:50 19 995 74 0 SO 0 69.1 693
20:58:47 19 995 61 0 S 0 68.9 697
21:01:47 19 995 57 0 SW 0 68.1 704
21:04:48 19 995 64 1 SO 0 67.4 711
21:07:48 19 995 66 1 W 0 66.8 712
21:10:47 19 995 61 0 S 0 66.1 712
21:13:47 18 995 61 0 S 0 65.9 712
21:16:49 18 995 57 1 S 0 65.7 708
21:19:45 18 995 39 1 W 0 65.7 718
21:22:46 18 995 31 0 S 0 65.6 729
21:25:48 18 995 29 0 S 0 65.7 738
21:28:48 18 995 27 0 SW 0 65.9 743
21:31:46 18 995 22 0 W 0 65.8 752
21:34:47 18 995 20 0 NW 0 65.9 752
21:37:48 18 995 17 0 SO 0 66.3 749
21:40:46 18 995 17 0 SW 0 67.1 753
21:43:49 18 995 16 0 SO 0 67.6 768
21:46:48 18 995 11 0 SO 0 68.1 769
21:49:30 17 995 7 0 SW 0 58.9 766
21:52:47 18 995 6 0 SW 0 68.7 767
21:55:45 18 995 6 0 O 0 69.2 772
21:58:45 18 995 5 0 O 0 69.3 779
22:01:44 17 995 4 0 O 0 69.7 787
22:04:46 17 995 3 0 O 0 69.9 794
22:07:49 17 996 0 0 O 0 69.7 793
22:10:45 17 995 0 0 O 0 69.7 802
22:13:48 17 996 0 0 SO 0 69.7 800
22:16:51 17 995 0 0 SO 0 69.6 805
22:19:47 17 995 0 0 SO 0 69.5 801
22:22:49 17 996 0 0 S 0 70 808
22:25:46 17 995 0 0 S 0 70.1 817
22:28:46 17 995 0 1 S 0 70.1 826
22:31:45 17 995 0 0 S 0 70.4 830
22:34:46 17 995 0 0 S 0 70.7 832
22:37:48 17 995 0 0 SW 0 70.9 835
22:40:47 17 995 0 1 SO 0 71 838
22:43:48 17 995 0 0 S 0 71.2 846
22:46:45 17 995 0 0 S 0 71.2 838
22:49:50 17 995 0 0 SO 0 71.4 849
22:52:45 17 995 0 0 S 0 71.7 844
22:55:45 17 995 0 0 S 0 71.7 845
22:58:47 17 996 0 0 SO 0 71.6 845
23:01:47 17 995 0 0 SW 0 71.7 847
23:04:47 17 995 0 0 S 0 72.3 851
23:07:48 17 995 0 0 S 0 72.4 851
23:10:48 17 995 0 0 S 0 72.3 864
23:13:48 17 995 0 0 S 0 72.2 869
23:16:46 17 995 0 0 S 0 72.5 869
23:19:48 17 995 0 0 S 0 72.6 862
23:22:47 17 995 0 0 S 0 72.7 858
23:25:47 17 995 0 0 S 0 72.8 855
23:28:47 17 995 0 0 S 0 73 849
23:31:45 17 995 0 0 S 0 73.4 846
23:34:46 17 995 0 0 S 0 73.7 834
23:37:47 17 995 0 0 S 0 73.7 835
23:40:46 17 995 0 0 S 0 74 847
23:43:45 17 995 0 0 S 0 74.1 854
23:46:47 17 995 0 0 S 0 74.3 849
23:49:46 17 996 0 0 S 0 74.3 852
23:52:47 17 995 0 0 S 0 74.6 848
23:55:49 17 996 0 1 NW 0 74.7 849
23:58:46 17 995 0 0 NW 0 74.9 846

Letzte Änderung : 22-Jul-2022
Copyright Jens Köhler, Wolfsburg, Obere Dorfstraße 10d